Year,Month,Day,Hour,Minute,Value (Times are PST for temperature in C)
2016,12,12,00,00,1.90
2016,12,12,00,01,1.90
2016,12,12,00,02,1.90
2016,12,12,00,03,1.90
2016,12,12,00,04,1.90
2016,12,12,00,05,1.90
2016,12,12,00,06,1.80
2016,12,12,00,07,1.90
2016,12,12,00,08,1.90
2016,12,12,00,09,1.90
2016,12,12,00,10,1.90
2016,12,12,00,11,1.90
2016,12,12,00,12,1.90
2016,12,12,00,13,1.90
2016,12,12,00,14,1.90
2016,12,12,00,15,1.90
2016,12,12,00,16,1.90
2016,12,12,00,17,1.90
2016,12,12,00,18,1.90
2016,12,12,00,19,1.90
2016,12,12,00,20,1.90
2016,12,12,00,21,1.90
2016,12,12,00,22,1.90
2016,12,12,00,23,1.90
2016,12,12,00,24,1.90
2016,12,12,00,25,1.90
2016,12,12,00,26,1.90
2016,12,12,00,27,1.90
2016,12,12,00,28,1.90
2016,12,12,00,29,1.90
2016,12,12,00,30,1.90
2016,12,12,00,31,1.90
2016,12,12,00,32,1.90
2016,12,12,00,33,1.90
2016,12,12,00,34,1.90
2016,12,12,00,35,1.90
2016,12,12,00,36,1.90
2016,12,12,00,37,1.90
2016,12,12,00,38,1.90
2016,12,12,00,39,1.90
2016,12,12,00,40,1.90
2016,12,12,00,41,1.90
2016,12,12,00,42,1.80
2016,12,12,00,43,1.80
2016,12,12,00,44,1.80
2016,12,12,00,45,1.80
2016,12,12,00,46,1.80
2016,12,12,00,47,1.80
2016,12,12,00,48,1.80
2016,12,12,00,49,1.80
2016,12,12,00,50,1.80
2016,12,12,00,51,1.80
2016,12,12,00,52,1.80
2016,12,12,00,53,1.80
2016,12,12,00,54,1.80
2016,12,12,00,55,1.80
2016,12,12,00,56,1.80
2016,12,12,00,57,1.80
2016,12,12,00,58,1.80
2016,12,12,00,59,1.80
2016,12,12,01,00,1.80
2016,12,12,01,01,1.80
2016,12,12,01,02,1.80
2016,12,12,01,03,1.80
2016,12,12,01,04,1.80
2016,12,12,01,05,1.80
2016,12,12,01,06,1.80
2016,12,12,01,07,1.80
2016,12,12,01,08,1.80
2016,12,12,01,09,1.80
2016,12,12,01,10,1.80
2016,12,12,01,11,1.80
2016,12,12,01,12,1.80
2016,12,12,01,13,1.80
2016,12,12,01,14,1.80
2016,12,12,01,15,1.80
2016,12,12,01,16,1.80
2016,12,12,01,17,1.80
2016,12,12,01,18,1.80
2016,12,12,01,19,1.80
2016,12,12,01,20,1.80
2016,12,12,01,21,1.80
2016,12,12,01,22,1.80
2016,12,12,01,23,1.80
2016,12,12,01,24,1.80
2016,12,12,01,25,1.80
2016,12,12,01,26,1.90
2016,12,12,01,27,1.90
2016,12,12,01,28,1.90
2016,12,12,01,29,1.90
2016,12,12,01,30,1.90
2016,12,12,01,31,1.90
2016,12,12,01,32,1.90
2016,12,12,01,33,2.00
2016,12,12,01,34,2.00
2016,12,12,01,35,2.00
2016,12,12,01,36,2.00
2016,12,12,01,37,2.00
2016,12,12,01,38,2.00
2016,12,12,01,39,2.00
2016,12,12,01,40,2.00
2016,12,12,01,41,2.00
2016,12,12,01,42,2.00
2016,12,12,01,43,2.00
2016,12,12,01,44,2.00
2016,12,12,01,45,2.00
2016,12,12,01,46,2.00
2016,12,12,01,47,2.10
2016,12,12,01,48,2.10
2016,12,12,01,49,2.10
2016,12,12,01,50,2.10
2016,12,12,01,51,2.10
2016,12,12,01,52,2.10
2016,12,12,01,53,2.10
2016,12,12,01,54,2.10
2016,12,12,01,55,2.10
2016,12,12,01,56,2.10
2016,12,12,01,57,2.10
2016,12,12,01,58,2.10
2016,12,12,01,59,2.10
2016,12,12,02,00,2.10
2016,12,12,02,01,2.10
2016,12,12,02,02,2.10
2016,12,12,02,03,2.10
2016,12,12,02,04,2.10
2016,12,12,02,05,2.10
2016,12,12,02,06,2.10
2016,12,12,02,07,2.10
2016,12,12,02,08,2.10
2016,12,12,02,09,2.10
2016,12,12,02,10,2.10
2016,12,12,02,11,2.10
2016,12,12,02,12,2.10
2016,12,12,02,13,2.10
2016,12,12,02,14,2.10
2016,12,12,02,15,2.10
2016,12,12,02,16,2.10
2016,12,12,02,17,2.10
2016,12,12,02,18,2.10
2016,12,12,02,19,2.10
2016,12,12,02,20,2.10
2016,12,12,02,21,2.10
2016,12,12,02,22,2.10
2016,12,12,02,23,2.10
2016,12,12,02,24,2.10
2016,12,12,02,25,2.10
2016,12,12,02,26,2.10
2016,12,12,02,27,2.10
2016,12,12,02,28,2.10
2016,12,12,02,29,2.10
2016,12,12,02,30,2.10
2016,12,12,02,31,2.10
2016,12,12,02,32,2.10
2016,12,12,02,33,2.10
2016,12,12,02,34,2.10
2016,12,12,02,35,2.00
2016,12,12,02,36,2.00
2016,12,12,02,37,2.00
2016,12,12,02,38,2.00
2016,12,12,02,39,2.00
2016,12,12,02,40,2.00
2016,12,12,02,41,2.00
2016,12,12,02,42,2.00
2016,12,12,02,43,2.00
2016,12,12,02,44,2.00
2016,12,12,02,45,2.00
2016,12,12,02,46,1.90
2016,12,12,02,47,1.90
2016,12,12,02,48,2.00
2016,12,12,02,49,1.90
2016,12,12,02,50,1.90
2016,12,12,02,51,1.90
2016,12,12,02,52,1.90
2016,12,12,02,53,1.90
2016,12,12,02,54,1.90
2016,12,12,02,55,1.90
2016,12,12,02,56,1.90
2016,12,12,02,57,1.90
2016,12,12,02,58,1.90
2016,12,12,02,59,1.90
2016,12,12,03,00,1.90
2016,12,12,03,01,1.90
2016,12,12,03,02,1.90
2016,12,12,03,03,1.90
2016,12,12,03,04,1.90
2016,12,12,03,05,1.90
2016,12,12,03,06,1.90
2016,12,12,03,07,1.90
2016,12,12,03,08,1.90
2016,12,12,03,09,1.90
2016,12,12,03,10,1.90
2016,12,12,03,11,1.90
2016,12,12,03,12,1.90
2016,12,12,03,13,1.90
2016,12,12,03,14,1.90
2016,12,12,03,15,1.90
2016,12,12,03,16,1.90
2016,12,12,03,17,1.90
2016,12,12,03,18,1.90
2016,12,12,03,19,1.90
2016,12,12,03,20,1.90
2016,12,12,03,21,2.00
2016,12,12,03,22,2.00
2016,12,12,03,23,1.90
2016,12,12,03,24,1.90
2016,12,12,03,25,1.90
2016,12,12,03,26,1.90
2016,12,12,03,27,1.90
2016,12,12,03,28,1.90
2016,12,12,03,29,1.90
2016,12,12,03,30,1.90
2016,12,12,03,31,1.90
2016,12,12,03,32,1.90
2016,12,12,03,33,1.90
2016,12,12,03,34,1.90
2016,12,12,03,35,1.90
2016,12,12,03,36,1.90
2016,12,12,03,37,1.90
2016,12,12,03,38,1.90
2016,12,12,03,39,1.90
2016,12,12,03,40,1.90
2016,12,12,03,41,1.90
2016,12,12,03,42,1.90
2016,12,12,03,43,1.90
2016,12,12,03,44,1.90
2016,12,12,03,45,1.90
2016,12,12,03,46,1.90
2016,12,12,03,47,1.90
2016,12,12,03,48,1.90
2016,12,12,03,49,1.90
2016,12,12,03,50,1.90
2016,12,12,03,51,1.90
2016,12,12,03,52,1.90
2016,12,12,03,53,1.90
2016,12,12,03,54,1.90
2016,12,12,03,55,1.90
2016,12,12,03,56,1.90
2016,12,12,03,57,1.90
2016,12,12,03,58,1.90
2016,12,12,03,59,1.90
2016,12,12,04,00,1.90
2016,12,12,04,01,1.90
2016,12,12,04,02,1.90
2016,12,12,04,03,1.90
2016,12,12,04,04,1.90
2016,12,12,04,05,1.90
2016,12,12,04,06,1.90
2016,12,12,04,07,1.90
2016,12,12,04,08,1.90
2016,12,12,04,09,1.90
2016,12,12,04,10,1.90
2016,12,12,04,11,1.90
2016,12,12,04,12,1.90
2016,12,12,04,13,1.90
2016,12,12,04,14,1.90
2016,12,12,04,15,1.90
2016,12,12,04,16,1.90
2016,12,12,04,17,1.90
2016,12,12,04,18,1.90
2016,12,12,04,19,1.90
2016,12,12,04,20,1.90
2016,12,12,04,21,1.90
2016,12,12,04,22,2.00
2016,12,12,04,23,2.00
2016,12,12,04,24,2.00
2016,12,12,04,25,2.00
2016,12,12,04,26,2.00
2016,12,12,04,27,2.00
2016,12,12,04,28,2.00
2016,12,12,04,29,2.00
2016,12,12,04,30,2.00
2016,12,12,04,31,2.10
2016,12,12,04,32,2.10
2016,12,12,04,33,2.10
2016,12,12,04,34,2.10
2016,12,12,04,35,2.10
2016,12,12,04,36,2.10
2016,12,12,04,37,2.10
2016,12,12,04,38,2.10
2016,12,12,04,39,2.10
2016,12,12,04,40,2.10
2016,12,12,04,41,2.10
2016,12,12,04,42,2.10
2016,12,12,04,43,2.10
2016,12,12,04,44,2.10
2016,12,12,04,45,2.10
2016,12,12,04,46,2.10
2016,12,12,04,47,2.10
2016,12,12,04,48,2.10
2016,12,12,04,49,2.10
2016,12,12,04,50,2.10
2016,12,12,04,51,2.10
2016,12,12,04,52,2.10
2016,12,12,04,53,2.00
2016,12,12,04,54,2.00
2016,12,12,04,55,2.00
2016,12,12,04,56,2.00
2016,12,12,04,57,2.00
2016,12,12,04,58,2.00
2016,12,12,04,59,2.00
2016,12,12,05,00,2.00
2016,12,12,05,01,2.00
2016,12,12,05,02,2.00
2016,12,12,05,03,2.00
2016,12,12,05,04,1.90
2016,12,12,05,05,1.90
2016,12,12,05,06,1.90
2016,12,12,05,07,1.90
2016,12,12,05,08,1.90
2016,12,12,05,09,1.90
2016,12,12,05,10,1.90
2016,12,12,05,11,1.90
2016,12,12,05,12,1.90
2016,12,12,05,13,1.90
2016,12,12,05,14,1.90
2016,12,12,05,15,1.90
2016,12,12,05,16,1.90
2016,12,12,05,17,1.80
2016,12,12,05,18,1.80
2016,12,12,05,19,1.80
2016,12,12,05,20,1.80
2016,12,12,05,21,1.80
2016,12,12,05,22,1.80
2016,12,12,05,23,1.80
2016,12,12,05,24,1.80
2016,12,12,05,25,1.80
2016,12,12,05,26,1.80
2016,12,12,05,27,1.80
2016,12,12,05,28,1.80
2016,12,12,05,29,1.80
2016,12,12,05,30,1.80
2016,12,12,05,31,1.80
2016,12,12,05,32,1.80
2016,12,12,05,33,1.70
2016,12,12,05,34,1.80
2016,12,12,05,35,1.80
2016,12,12,05,36,1.80
2016,12,12,05,37,1.80
2016,12,12,05,38,1.80
2016,12,12,05,39,1.80
2016,12,12,05,40,1.80
2016,12,12,05,41,1.80
2016,12,12,05,42,1.80
2016,12,12,05,43,1.80
2016,12,12,05,44,1.80
2016,12,12,05,45,1.70
2016,12,12,05,46,1.70
2016,12,12,05,47,1.70
2016,12,12,05,48,1.70
2016,12,12,05,49,1.70
2016,12,12,05,50,1.70
2016,12,12,05,51,1.70
2016,12,12,05,52,1.70
2016,12,12,05,53,1.70
2016,12,12,05,54,1.70
2016,12,12,05,55,1.80
2016,12,12,05,56,1.80
2016,12,12,05,57,1.80
2016,12,12,05,58,1.80
2016,12,12,05,59,1.80
2016,12,12,06,00,1.80
2016,12,12,06,01,1.80
2016,12,12,06,02,1.80
2016,12,12,06,03,1.80
2016,12,12,06,04,1.80
2016,12,12,06,05,1.80
2016,12,12,06,06,1.80
2016,12,12,06,07,1.80
2016,12,12,06,08,1.80
2016,12,12,06,09,1.80
2016,12,12,06,10,1.80
2016,12,12,06,11,1.80
2016,12,12,06,12,1.80
2016,12,12,06,13,1.80
2016,12,12,06,14,1.80
2016,12,12,06,15,1.80
2016,12,12,06,16,1.70
2016,12,12,06,17,1.70
2016,12,12,06,18,1.70
2016,12,12,06,19,1.70
2016,12,12,06,20,1.70
2016,12,12,06,21,1.70
2016,12,12,06,22,1.70
2016,12,12,06,23,1.70
2016,12,12,06,24,1.70
2016,12,12,06,25,1.70
2016,12,12,06,26,1.70
2016,12,12,06,27,1.70
2016,12,12,06,28,1.70
2016,12,12,06,29,1.70
2016,12,12,06,30,1.70
2016,12,12,06,31,1.70
2016,12,12,06,32,1.70
2016,12,12,06,33,1.70
2016,12,12,06,34,1.70
2016,12,12,06,35,1.70
2016,12,12,06,36,1.70
2016,12,12,06,37,1.70
2016,12,12,06,38,1.70
2016,12,12,06,39,1.70
2016,12,12,06,40,1.70
2016,12,12,06,41,1.70
2016,12,12,06,42,1.70
2016,12,12,06,43,1.70
2016,12,12,06,44,1.70
2016,12,12,06,45,1.70
2016,12,12,06,46,1.70
2016,12,12,06,47,1.70
2016,12,12,06,48,1.70
2016,12,12,06,49,1.60
2016,12,12,06,50,1.60
2016,12,12,06,51,1.60
2016,12,12,06,52,1.60
2016,12,12,06,53,1.60
2016,12,12,06,54,1.60
2016,12,12,06,55,1.60
2016,12,12,06,56,1.60
2016,12,12,06,57,1.60
2016,12,12,06,58,1.60
2016,12,12,06,59,1.60
2016,12,12,07,00,1.60
2016,12,12,07,01,1.60
2016,12,12,07,02,1.60
2016,12,12,07,03,1.60
2016,12,12,07,04,1.60
2016,12,12,07,05,1.70
2016,12,12,07,06,1.70
2016,12,12,07,07,1.60
2016,12,12,07,08,1.70
2016,12,12,07,09,1.70
2016,12,12,07,10,1.60
2016,12,12,07,11,1.60
2016,12,12,07,12,1.60
2016,12,12,07,13,1.60
2016,12,12,07,14,1.60
2016,12,12,07,15,1.60
2016,12,12,07,16,1.60
2016,12,12,07,17,1.50
2016,12,12,07,18,1.50
2016,12,12,07,19,1.50
2016,12,12,07,20,1.50
2016,12,12,07,21,1.50
2016,12,12,07,22,1.50
2016,12,12,07,23,1.50
2016,12,12,07,24,1.50
2016,12,12,07,25,1.50
2016,12,12,07,26,1.50
2016,12,12,07,27,1.60
2016,12,12,07,28,1.60
2016,12,12,07,29,1.60
2016,12,12,07,30,1.60
2016,12,12,07,31,1.60
2016,12,12,07,32,1.60
2016,12,12,07,33,1.60
2016,12,12,07,34,1.60
2016,12,12,07,35,1.60
2016,12,12,07,36,1.60
2016,12,12,07,37,1.60
2016,12,12,07,38,1.60
2016,12,12,07,39,1.60
2016,12,12,07,40,1.60
2016,12,12,07,41,1.60
2016,12,12,07,42,1.60
2016,12,12,07,43,1.60
2016,12,12,07,44,1.60
2016,12,12,07,45,1.60
2016,12,12,07,46,1.60
2016,12,12,07,47,1.60
2016,12,12,07,48,1.60
2016,12,12,07,49,1.60
2016,12,12,07,50,1.60
2016,12,12,07,51,1.60
2016,12,12,07,52,1.60
2016,12,12,07,53,1.60
2016,12,12,07,54,1.60
2016,12,12,07,55,1.60
2016,12,12,07,56,1.60
2016,12,12,07,57,1.60
2016,12,12,07,58,1.60
2016,12,12,07,59,1.60
2016,12,12,08,00,1.60
2016,12,12,08,01,1.60
2016,12,12,08,02,1.60
2016,12,12,08,03,1.60
2016,12,12,08,04,1.60
2016,12,12,08,05,1.60
2016,12,12,08,06,1.60
2016,12,12,08,07,1.60
2016,12,12,08,08,1.60
2016,12,12,08,09,1.50
2016,12,12,08,10,1.50
2016,12,12,08,11,1.50
2016,12,12,08,12,1.50
2016,12,12,08,13,1.50
2016,12,12,08,14,1.50
2016,12,12,08,15,1.50
2016,12,12,08,16,1.50
2016,12,12,08,17,1.50
2016,12,12,08,18,1.50
2016,12,12,08,19,1.50
2016,12,12,08,20,1.50
2016,12,12,08,21,1.50
2016,12,12,08,22,1.50
2016,12,12,08,23,1.50
2016,12,12,08,24,1.50
2016,12,12,08,25,1.50
2016,12,12,08,26,1.50
2016,12,12,08,27,1.50
2016,12,12,08,28,1.50
2016,12,12,08,29,1.50
2016,12,12,08,30,1.50
2016,12,12,08,31,1.50
2016,12,12,08,32,1.50
2016,12,12,08,33,1.50
2016,12,12,08,34,1.50
2016,12,12,08,35,1.50
2016,12,12,08,36,1.50
2016,12,12,08,37,1.40
2016,12,12,08,38,1.40
2016,12,12,08,39,1.40
2016,12,12,08,40,1.50
2016,12,12,08,41,1.50
2016,12,12,08,42,1.50
2016,12,12,08,43,1.50
2016,12,12,08,44,1.50
2016,12,12,08,45,1.50
2016,12,12,08,46,1.50
2016,12,12,08,47,1.50
2016,12,12,08,48,1.50
2016,12,12,08,49,1.50
2016,12,12,08,50,1.50
2016,12,12,08,51,1.50
2016,12,12,08,52,1.50
2016,12,12,08,53,1.50
2016,12,12,08,54,1.50
2016,12,12,08,55,1.50
2016,12,12,08,56,1.60
2016,12,12,08,57,1.60
2016,12,12,08,58,1.60
2016,12,12,08,59,1.60
2016,12,12,09,00,1.60
2016,12,12,09,01,1.60
2016,12,12,09,02,1.60
2016,12,12,09,03,1.60
2016,12,12,09,04,1.60
2016,12,12,09,05,1.60
2016,12,12,09,06,1.60
2016,12,12,09,07,1.60
2016,12,12,09,08,1.60
2016,12,12,09,09,1.60
2016,12,12,09,10,1.60
2016,12,12,09,11,1.60
2016,12,12,09,12,1.60
2016,12,12,09,13,1.60
2016,12,12,09,14,1.60
2016,12,12,09,15,1.60
2016,12,12,09,16,1.60
2016,12,12,09,17,1.60
2016,12,12,09,18,1.60
2016,12,12,09,19,1.60
2016,12,12,09,20,1.60
2016,12,12,09,21,1.70
2016,12,12,09,22,1.70
2016,12,12,09,23,1.70
2016,12,12,09,24,1.70
2016,12,12,09,25,1.70
2016,12,12,09,26,1.70
2016,12,12,09,27,1.70
2016,12,12,09,28,1.70
2016,12,12,09,29,1.70
2016,12,12,09,30,1.70
2016,12,12,09,31,1.70
2016,12,12,09,32,1.70
2016,12,12,09,33,1.80
2016,12,12,09,34,1.80
2016,12,12,09,35,1.80
2016,12,12,09,36,1.80
2016,12,12,09,37,1.80
2016,12,12,09,38,1.80
2016,12,12,09,39,1.80
2016,12,12,09,40,1.80
2016,12,12,09,41,1.80
2016,12,12,09,42,1.80
2016,12,12,09,43,1.80
2016,12,12,09,44,1.80
2016,12,12,09,45,1.80
2016,12,12,09,46,1.80
2016,12,12,09,47,1.80
2016,12,12,09,48,1.80
2016,12,12,09,49,1.80
2016,12,12,09,50,1.80
2016,12,12,09,51,1.80
2016,12,12,09,52,1.90
2016,12,12,09,53,1.90
2016,12,12,09,54,1.90
2016,12,12,09,55,1.90
2016,12,12,09,56,1.90
2016,12,12,09,57,1.90
2016,12,12,09,58,1.90
2016,12,12,09,59,1.90
2016,12,12,10,00,2.00
2016,12,12,10,01,2.00
2016,12,12,10,02,2.00
2016,12,12,10,03,2.00
2016,12,12,10,04,2.00
2016,12,12,10,05,2.00
2016,12,12,10,06,2.10
2016,12,12,10,07,2.10
2016,12,12,10,08,2.10
2016,12,12,10,09,2.10
2016,12,12,10,10,2.10
2016,12,12,10,11,2.10
2016,12,12,10,12,2.10
2016,12,12,10,13,2.10
2016,12,12,10,14,2.10
2016,12,12,10,15,2.10
2016,12,12,10,16,2.10
2016,12,12,12,29,3.50
2016,12,12,12,30,3.50
2016,12,12,12,31,3.50
2016,12,12,12,32,3.60
2016,12,12,12,33,3.60
2016,12,12,12,34,3.60
2016,12,12,12,35,3.60
2016,12,12,12,36,3.60
2016,12,12,12,37,3.60
2016,12,12,12,38,3.70
2016,12,12,12,39,3.70
2016,12,12,12,40,3.70
2016,12,12,12,41,3.80
2016,12,12,12,42,3.80
2016,12,12,12,43,3.80
2016,12,12,12,44,3.90
2016,12,12,12,45,3.90
2016,12,12,12,46,3.90
2016,12,12,12,47,3.90
2016,12,12,12,48,3.90
2016,12,12,12,49,4.00
2016,12,12,12,50,4.00
2016,12,12,12,51,4.10
2016,12,12,12,52,4.10
2016,12,12,12,53,4.20
2016,12,12,12,54,4.30
2016,12,12,12,55,4.40
2016,12,12,12,56,4.50
2016,12,12,12,57,4.70
2016,12,12,12,58,4.70
2016,12,12,12,59,4.80
2016,12,12,13,00,4.80
2016,12,12,13,01,4.80
2016,12,12,13,02,4.70
2016,12,12,13,03,4.70
2016,12,12,13,04,4.60
2016,12,12,13,05,4.60
2016,12,12,13,06,4.50
2016,12,12,13,07,4.50
2016,12,12,13,08,4.50
2016,12,12,13,09,4.50
2016,12,12,13,10,4.50
2016,12,12,13,11,4.50
2016,12,12,13,12,4.50
2016,12,12,13,13,4.50
2016,12,12,13,14,4.60
2016,12,12,13,15,4.60
2016,12,12,13,16,4.60
2016,12,12,13,17,4.60
2016,12,12,13,18,4.60
2016,12,12,13,19,4.60
2016,12,12,13,20,4.70
2016,12,12,13,21,4.70
2016,12,12,13,22,4.70
2016,12,12,13,23,4.70
2016,12,12,13,24,4.80
2016,12,12,13,25,4.80
2016,12,12,13,26,4.80
2016,12,12,13,27,4.90
2016,12,12,13,28,4.90
2016,12,12,13,29,5.00
2016,12,12,13,30,5.10
2016,12,12,13,31,5.10
2016,12,12,13,32,5.20
2016,12,12,13,33,5.20
2016,12,12,13,34,5.30
2016,12,12,13,35,5.30
2016,12,12,13,36,5.30
2016,12,12,13,37,5.40
2016,12,12,13,38,5.40
2016,12,12,13,39,5.40
2016,12,12,13,40,5.40
2016,12,12,13,41,5.40
2016,12,12,13,42,5.30
2016,12,12,13,43,5.30
2016,12,12,13,44,5.30
2016,12,12,13,45,5.30
2016,12,12,13,46,5.20
2016,12,12,13,47,5.20
2016,12,12,13,48,5.10
2016,12,12,13,49,5.00
2016,12,12,13,50,4.90
2016,12,12,13,51,4.80
2016,12,12,13,52,4.70
2016,12,12,13,53,4.60
2016,12,12,13,54,4.50
2016,12,12,13,55,4.40
2016,12,12,13,56,4.30
2016,12,12,13,57,4.30
2016,12,12,13,58,4.20
2016,12,12,13,59,4.20
2016,12,12,14,00,4.10
2016,12,12,14,01,4.00
2016,12,12,14,02,4.00
2016,12,12,14,03,3.90
2016,12,12,14,04,3.90
2016,12,12,14,05,3.80
2016,12,12,14,06,3.80
2016,12,12,14,07,3.80
2016,12,12,14,08,3.80
2016,12,12,14,09,3.70
2016,12,12,14,10,3.70
2016,12,12,14,11,3.70
2016,12,12,14,12,3.70
2016,12,12,14,13,3.70
2016,12,12,14,14,3.70
2016,12,12,14,15,3.70
2016,12,12,14,16,3.70
2016,12,12,14,17,3.70
2016,12,12,14,18,3.70
2016,12,12,14,19,3.70
2016,12,12,14,20,3.60
2016,12,12,14,21,3.60
2016,12,12,14,22,3.60
2016,12,12,14,23,3.60
2016,12,12,14,24,3.60
2016,12,12,14,25,3.70
2016,12,12,14,26,3.70
2016,12,12,14,27,3.80
2016,12,12,14,28,3.90
2016,12,12,14,29,3.90
2016,12,12,14,30,4.00
2016,12,12,14,31,4.10
2016,12,12,14,32,4.10
2016,12,12,14,33,4.20
2016,12,12,14,34,4.20
2016,12,12,14,35,4.20
2016,12,12,14,36,4.20
2016,12,12,14,37,4.20
2016,12,12,14,38,4.20
2016,12,12,14,39,4.20
2016,12,12,14,40,4.20
2016,12,12,14,41,4.20
2016,12,12,14,42,4.10
2016,12,12,14,43,4.10
2016,12,12,14,44,4.00
2016,12,12,14,45,3.90
2016,12,12,14,46,3.90
2016,12,12,14,47,3.80
2016,12,12,14,48,3.80
2016,12,12,14,49,3.70
2016,12,12,14,50,3.70
2016,12,12,14,51,3.70
2016,12,12,14,52,3.70
2016,12,12,14,53,3.60
2016,12,12,14,54,3.60
2016,12,12,14,55,3.60
2016,12,12,14,56,3.60
2016,12,12,14,57,3.60
2016,12,12,14,58,3.50
2016,12,12,14,59,3.50
2016,12,12,15,00,3.50
2016,12,12,15,01,3.50
2016,12,12,15,02,3.50
2016,12,12,15,03,3.40
2016,12,12,15,04,3.40
2016,12,12,15,05,3.30
2016,12,12,15,06,3.30
2016,12,12,15,07,3.30
2016,12,12,15,08,3.20
2016,12,12,15,09,3.20
2016,12,12,15,10,3.20
2016,12,12,15,11,3.10
2016,12,12,15,12,3.10
2016,12,12,15,13,3.10
2016,12,12,15,14,3.10
2016,12,12,15,15,3.00
2016,12,12,15,16,3.00
2016,12,12,15,17,3.00
2016,12,12,15,18,2.90
2016,12,12,15,19,2.90
2016,12,12,15,20,2.90
2016,12,12,15,21,2.90
2016,12,12,15,22,2.90
2016,12,12,15,23,2.90
2016,12,12,15,24,2.90
2016,12,12,15,25,2.90
2016,12,12,15,26,2.90
2016,12,12,15,27,2.90
2016,12,12,15,28,2.90
2016,12,12,15,29,2.90
2016,12,12,15,30,2.80
2016,12,12,15,31,2.80
2016,12,12,15,32,2.80
2016,12,12,15,33,2.80
2016,12,12,15,34,2.70
2016,12,12,15,35,2.70
2016,12,12,15,36,2.70
2016,12,12,15,37,2.70
2016,12,12,15,38,2.60
2016,12,12,15,39,2.60
2016,12,12,15,40,2.60
2016,12,12,15,41,2.60
2016,12,12,15,42,2.60
2016,12,12,15,43,2.60
2016,12,12,15,44,2.50
2016,12,12,15,45,2.50
2016,12,12,15,46,2.40
2016,12,12,15,47,2.40
2016,12,12,15,48,2.40
2016,12,12,15,49,2.30
2016,12,12,15,50,2.30
2016,12,12,15,51,2.30
2016,12,12,15,52,2.30
2016,12,12,15,53,2.20
2016,12,12,15,54,2.20
2016,12,12,15,55,2.20
2016,12,12,15,56,2.20
2016,12,12,15,57,2.10
2016,12,12,15,58,2.10
2016,12,12,15,59,2.00
2016,12,12,16,00,2.00
2016,12,12,16,01,1.90
2016,12,12,16,02,1.80
2016,12,12,16,03,1.80
2016,12,12,16,04,1.80
2016,12,12,16,05,1.80
2016,12,12,16,06,1.80
2016,12,12,16,07,1.90
2016,12,12,16,08,1.90
2016,12,12,16,09,1.90
2016,12,12,16,10,1.90
2016,12,12,16,11,1.90
2016,12,12,16,12,1.90
2016,12,12,16,13,1.90
2016,12,12,16,14,1.90
2016,12,12,16,15,1.90
2016,12,12,16,16,1.80
2016,12,12,16,17,1.80
2016,12,12,16,18,1.70
2016,12,12,16,19,1.70
2016,12,12,16,20,1.60
2016,12,12,16,21,1.50
2016,12,12,16,22,1.40
2016,12,12,16,23,1.30
2016,12,12,16,24,1.20
2016,12,12,16,25,1.10
2016,12,12,16,26,1.10
2016,12,12,16,27,1.00
2016,12,12,16,28,0.90
2016,12,12,16,29,0.90
2016,12,12,16,30,0.90
2016,12,12,16,31,0.90
2016,12,12,16,32,0.80
2016,12,12,16,33,0.80
2016,12,12,16,34,0.80
2016,12,12,16,35,0.80
2016,12,12,16,36,0.80
2016,12,12,16,37,0.80
2016,12,12,16,38,0.70
2016,12,12,16,39,0.70
2016,12,12,16,40,0.80
2016,12,12,16,41,0.70
2016,12,12,16,42,0.70
2016,12,12,16,43,0.70
2016,12,12,16,44,0.70
2016,12,12,16,45,0.70
2016,12,12,16,46,0.60
2016,12,12,16,47,0.60
2016,12,12,16,48,0.50
2016,12,12,16,49,0.50
2016,12,12,16,50,0.50
2016,12,12,16,51,0.40
2016,12,12,16,52,0.40
2016,12,12,16,53,0.40
2016,12,12,16,54,0.40
2016,12,12,16,55,0.40
2016,12,12,16,56,0.40
2016,12,12,16,57,0.30
2016,12,12,16,58,0.30
2016,12,12,16,59,0.30
2016,12,12,17,00,0.30
2016,12,12,17,01,0.30
2016,12,12,17,02,0.30
2016,12,12,17,03,0.20
2016,12,12,17,04,0.20
2016,12,12,17,05,0.20
2016,12,12,17,06,0.10
2016,12,12,17,07,0.10
2016,12,12,17,08,0.10
2016,12,12,17,09,0.10
2016,12,12,17,10,0.10
2016,12,12,17,11,0.00
2016,12,12,17,12,0.00
2016,12,12,17,13,0.00
2016,12,12,17,14,-0.10
2016,12,12,17,15,-0.10
2016,12,12,17,16,-0.10
2016,12,12,17,17,-0.10
2016,12,12,17,18,-0.10
2016,12,12,17,19,-0.10
2016,12,12,17,20,-0.20
2016,12,12,17,21,-0.20
2016,12,12,17,22,-0.20
2016,12,12,17,23,-0.20
2016,12,12,17,24,-0.20
2016,12,12,17,25,-0.30
2016,12,12,17,26,-0.30
2016,12,12,17,27,-0.30
2016,12,12,17,28,-0.30
2016,12,12,17,29,-0.30
2016,12,12,17,30,-0.30
2016,12,12,17,31,-0.30
2016,12,12,17,32,-0.30
2016,12,12,17,33,-0.30
2016,12,12,17,34,-0.30
2016,12,12,17,35,-0.30
2016,12,12,17,36,-0.30
2016,12,12,17,37,-0.30
2016,12,12,17,38,-0.30
2016,12,12,17,39,-0.40
2016,12,12,17,40,-0.40
2016,12,12,17,41,-0.40
2016,12,12,17,42,-0.40
2016,12,12,17,43,-0.40
2016,12,12,17,44,-0.40
2016,12,12,17,45,-0.40
2016,12,12,17,46,-0.40
2016,12,12,17,47,-0.40
2016,12,12,17,48,-0.40
2016,12,12,17,49,-0.40
2016,12,12,17,50,-0.40
2016,12,12,17,51,-0.40
2016,12,12,17,52,-0.40
2016,12,12,17,53,-0.40
2016,12,12,17,54,-0.40
2016,12,12,17,55,-0.40
2016,12,12,17,56,-0.40
2016,12,12,17,57,-0.40
2016,12,12,17,58,-0.40
2016,12,12,17,59,-0.40
2016,12,12,18,00,-0.40
2016,12,12,18,01,-0.40
2016,12,12,18,02,-0.50
2016,12,12,18,03,-0.50
2016,12,12,18,04,-0.60
2016,12,12,18,05,-0.60
2016,12,12,18,06,-0.60
2016,12,12,18,07,-0.60
2016,12,12,18,08,-0.60
2016,12,12,18,09,-0.60
2016,12,12,18,10,-0.60
2016,12,12,18,11,-0.60
2016,12,12,18,12,-0.60
2016,12,12,18,13,-0.60
2016,12,12,18,14,-0.60
2016,12,12,18,15,-0.60
2016,12,12,18,16,-0.60
2016,12,12,18,17,-0.60
2016,12,12,18,18,-0.60
2016,12,12,18,19,-0.70
2016,12,12,18,20,-0.70
2016,12,12,18,21,-0.70
2016,12,12,18,22,-0.70
2016,12,12,18,23,-0.70
2016,12,12,18,24,-0.70
2016,12,12,18,25,-0.70
2016,12,12,18,26,-0.70
2016,12,12,18,27,-0.70
2016,12,12,18,28,-0.70
2016,12,12,18,29,-0.70
2016,12,12,18,30,-0.70
2016,12,12,18,31,-0.70
2016,12,12,18,32,-0.70
2016,12,12,18,33,-0.70
2016,12,12,18,34,-0.70
2016,12,12,18,35,-0.70
2016,12,12,18,36,-0.70
2016,12,12,18,37,-0.70
2016,12,12,18,38,-0.70
2016,12,12,18,39,-0.70
2016,12,12,18,40,-0.70
2016,12,12,18,41,-0.60
2016,12,12,18,42,-0.70
2016,12,12,18,43,-0.70
2016,12,12,18,44,-0.70
2016,12,12,18,45,-0.70
2016,12,12,18,46,-0.70
2016,12,12,18,47,-0.70
2016,12,12,18,48,-0.60
2016,12,12,18,49,-0.60
2016,12,12,18,50,-0.60
2016,12,12,18,51,-0.50
2016,12,12,18,52,-0.50
2016,12,12,18,53,-0.50
2016,12,12,18,54,-0.50
2016,12,12,18,55,-0.50
2016,12,12,18,56,-0.50
2016,12,12,18,57,-0.50
2016,12,12,18,58,-0.50
2016,12,12,18,59,-0.50
2016,12,12,19,00,-0.50
2016,12,12,19,01,-0.50
2016,12,12,19,02,-0.50
2016,12,12,19,03,-0.50
2016,12,12,19,04,-0.50
2016,12,12,19,05,-0.50
2016,12,12,19,06,-0.50
2016,12,12,19,07,-0.60
2016,12,12,19,08,-0.60
2016,12,12,19,09,-0.60
2016,12,12,19,10,-0.60
2016,12,12,19,11,-0.60
2016,12,12,19,12,-0.60
2016,12,12,19,13,-0.60
2016,12,12,19,14,-0.60
2016,12,12,19,15,-0.50
2016,12,12,19,16,-0.50
2016,12,12,19,17,-0.50
2016,12,12,19,18,-0.50
2016,12,12,19,19,-0.60
2016,12,12,19,20,-0.60
2016,12,12,19,21,-0.60
2016,12,12,19,22,-0.50
2016,12,12,19,23,-0.50
2016,12,12,19,24,-0.50
2016,12,12,19,25,-0.50
2016,12,12,19,26,-0.50
2016,12,12,19,27,-0.50
2016,12,12,19,28,-0.50
2016,12,12,19,29,-0.60
2016,12,12,19,30,-0.60
2016,12,12,19,31,-0.60
2016,12,12,19,32,-0.60
2016,12,12,19,33,-0.60
2016,12,12,19,34,-0.60
2016,12,12,19,35,-0.60
2016,12,12,19,36,-0.60
2016,12,12,19,37,-0.50
2016,12,12,19,38,-0.50
2016,12,12,19,39,-0.50
2016,12,12,19,40,-0.40
2016,12,12,19,41,-0.40
2016,12,12,19,42,-0.30
2016,12,12,19,43,-0.30
2016,12,12,19,44,-0.20
2016,12,12,19,45,-0.20
2016,12,12,19,46,-0.20
2016,12,12,19,47,-0.10
2016,12,12,19,48,-0.10
2016,12,12,19,49,-0.10
2016,12,12,19,50,-0.10
2016,12,12,19,51,-0.10
2016,12,12,19,52,-0.10
2016,12,12,19,53,-0.10
2016,12,12,19,54,-0.10
2016,12,12,19,55,-0.10
2016,12,12,19,56,-0.10
2016,12,12,19,57,-0.10
2016,12,12,19,58,-0.20
2016,12,12,19,59,-0.20
2016,12,12,20,00,-0.20
2016,12,12,20,01,-0.20
2016,12,12,20,02,-0.30
2016,12,12,20,03,-0.30
2016,12,12,20,04,-0.30
2016,12,12,20,05,-0.30
2016,12,12,20,06,-0.30
2016,12,12,20,07,-0.30
2016,12,12,20,08,-0.30
2016,12,12,20,09,-0.30
2016,12,12,20,10,-0.30